Bogalusa, LA

9:09 PM CDT on April 26, 2017 (GMT -0500)
Carr Memorial

Weather History for KBXA - January, 2013

Change the Weather History Date:

Thursday, January 24, 2013

  Actual Average Record
Temperature  
Mean Temperature 56 °F -  
Max Temperature 72 °F 61 °F 72 °F (2013)
Min Temperature 41 °F 38 °F 26 °F (2016)
Degree Days  
Heating Degree Days 8    
Growing Degree Days 6 (Base 50)    
Moisture  
Dew Point 50 °F    
Average Humidity 79    
Maximum Humidity 100    
Minimum Humidity 46    
Precipitation  
Precipitation 0.00 in - - ()
Sea Level Pressure  
Sea Level Pressure 30.29 in    
Wind  
Wind Speed 2 mph (SW)    
Max Wind Speed 12 mph    
Max Gust Speed -    
Visibility 8 miles    
Events Fog    
Averages and records for this station are not official NWS values.
T = Trace of Precipitation, MM = Missing Value Source: NWS Daily Summary

Daily Weather History Graph

Daily Weather History Graph

Search for Another Location

Airport or City:

Trip Planner

Search our weather history database for the weather conditions in past years. The results will help you decide how hot, cold, wet, or windy it might be!

Date:

Astronomy

Jan. 24, 2013 Rise Set
Actual Time 6:55 AM CST 5:28 PM CST
Civil Twilight 6:29 AM CST 5:54 PM CST
Nautical Twilight 6:00 AM CST 6:23 PM CST
Astronomical Twilight 5:31 AM CST 6:52 PM CST
Moon 3:32 PM CST (1/24) 4:50 AM CST (1/24)
Length of Visible Light 11h 24m
Length of Day
10h 33m
Waxing Gibbous, 94% of the Moon is Illuminated
Jan 24
Waxing Gibbous
Jan 26
Full
Feb 3
Last Quarter
Feb 10
New
Feb 17
First Quarter

Hourly Weather History & Observations

Time (CST) Temp. Dew Point Humidity Pressure Visibility Wind Dir Wind Speed Gust Speed Precip Events Conditions
12:15 AM 44.2 °F 44.2 °F 100% 30.31 in 10.0 mi Calm Calm - N/A   Unknown
12:35 AM 43.9 °F 43.9 °F 100% 30.31 in 10.0 mi Calm Calm - N/A   Unknown
12:55 AM 43.7 °F 43.7 °F 100% 30.32 in 10.0 mi Calm Calm - N/A   Unknown
1:15 AM 43.5 °F 43.5 °F 100% 30.31 in 10.0 mi Calm Calm - N/A   Unknown
1:35 AM 43.2 °F 43.2 °F 100% 30.31 in 10.0 mi Calm Calm - N/A   Unknown
1:55 AM 42.1 °F 42.1 °F 100% 30.31 in 10.0 mi Calm Calm - N/A   Unknown
2:15 AM 41.9 °F 41.9 °F 100% 30.31 in 7.0 mi Calm Calm - N/A   Unknown
2:35 AM 41.4 °F 41.4 °F 100% 30.31 in 7.0 mi Calm Calm - N/A   Unknown
2:55 AM 41.4 °F 41.4 °F 100% 30.30 in 0.2 mi Calm Calm - N/A Fog Fog
3:15 AM 41.9 °F 41.9 °F 100% 30.30 in 0.2 mi Calm Calm - N/A Fog Fog
3:55 AM 42.3 °F 42.3 °F 100% 30.31 in 0.2 mi Calm Calm - N/A Fog Fog
4:15 AM 41.9 °F 41.9 °F 100% 30.31 in 0.2 mi Calm Calm - N/A Fog Fog
4:35 AM 42.3 °F 42.3 °F 100% 30.31 in 0.2 mi Calm Calm - N/A Fog Fog
4:55 AM 42.1 °F 42.1 °F 100% 30.31 in 0.2 mi Calm Calm - N/A Fog Fog
5:15 AM 42.3 °F 42.3 °F 100% 30.31 in 0.2 mi Calm Calm - N/A Fog Fog
5:35 AM 42.8 °F 42.8 °F 100% 30.32 in 0.2 mi Calm Calm - N/A Fog Fog
5:55 AM 43.0 °F 43.0 °F 100% 30.32 in 0.2 mi Calm Calm - N/A Fog Fog
6:15 AM 43.2 °F 43.2 °F 100% 30.33 in 0.2 mi Calm Calm - N/A Fog Fog
6:35 AM 43.3 °F 43.3 °F 100% 30.33 in 0.2 mi Calm Calm - N/A Fog Fog
6:55 AM 43.3 °F 43.3 °F 100% 30.33 in 0.2 mi Calm Calm - N/A Fog Fog
7:15 AM 43.7 °F 43.7 °F 100% 30.34 in 0.2 mi Calm Calm - N/A Fog Fog
7:35 AM 44.4 °F 44.4 °F 100% 30.34 in 1.5 mi Calm Calm - N/A   Mist
7:55 AM 45.0 °F 45.0 °F 100% 30.34 in 2.5 mi Calm Calm - N/A   Mist
8:15 AM 46.4 °F 46.4 °F 100% 30.34 in 2.5 mi Calm Calm - N/A   Mist
8:35 AM 47.8 °F 47.8 °F 100% 30.35 in 2.5 mi Calm Calm - N/A   Mist
9:15 AM 53.1 °F 53.1 °F 100% 30.36 in 5.0 mi Calm Calm - N/A   Mist
9:55 AM - - N/A% 30.36 in 10.0 mi WSW 4.6 mph - N/A   Unknown
10:15 AM 64.6 °F 53.6 °F 68% 30.35 in 10.0 mi West 6.9 mph - N/A   Unknown
10:35 AM 66.9 °F 53.4 °F 62% 30.35 in 10.0 mi WSW 11.5 mph - N/A   Unknown
10:55 AM 67.6 °F 53.8 °F 61% 30.34 in 10.0 mi WSW 9.2 mph - N/A   Unknown
11:15 AM 69.6 °F 54.1 °F 58% 30.34 in 10.0 mi West 8.1 mph - N/A   Unknown
11:35 AM 69.8 °F 54.5 °F 58% 30.33 in 10.0 mi West 8.1 mph - N/A   Unknown
11:55 AM 69.3 °F 54.0 °F 58% 30.31 in 10.0 mi West 6.9 mph - N/A   Unknown
12:15 PM 71.1 °F 54.1 °F 55% 30.30 in 10.0 mi WNW 8.1 mph - N/A   Unknown
12:35 PM 71.6 °F 53.1 °F 52% 30.29 in 10.0 mi SW 6.9 mph - N/A   Unknown
12:55 PM 71.2 °F 52.5 °F 52% 30.28 in 10.0 mi SW 3.5 mph - N/A   Unknown
1:15 PM 71.8 °F 53.4 °F 52% 30.27 in 10.0 mi West 6.9 mph - N/A   Unknown
1:35 PM 71.1 °F 52.0 °F 51% 30.26 in 10.0 mi West 5.8 mph - N/A   Unknown
1:55 PM 71.2 °F 53.1 °F 53% 30.26 in 10.0 mi West 4.6 mph - N/A   Unknown
2:15 PM 71.6 °F 52.3 °F 51% 30.25 in 10.0 mi WSW 3.5 mph - N/A   Unknown
2:35 PM 72.5 °F 52.3 °F 49% 30.24 in 10.0 mi Calm Calm - N/A   Unknown
2:55 PM 71.6 °F 51.8 °F 50% 30.23 in 10.0 mi SW 3.5 mph - N/A   Unknown
3:15 PM 72.3 °F 50.4 °F 46% 30.23 in 10.0 mi SW 5.8 mph - N/A   Unknown
3:35 PM 71.4 °F 51.1 °F 49% 30.23 in 10.0 mi North - - N/A   Unknown
3:55 PM 70.7 °F 52.0 °F 51% 30.23 in 10.0 mi SSW 4.6 mph - N/A   Unknown
4:15 PM 70.7 °F 52.0 °F 51% 30.23 in 10.0 mi SW 3.5 mph - N/A   Unknown
4:35 PM 70.3 °F 51.8 °F 52% 30.23 in 10.0 mi SW 5.8 mph - N/A   Unknown
4:55 PM 69.1 °F 52.7 °F 56% 30.23 in 10.0 mi SSW 4.6 mph - N/A   Unknown
5:15 PM 67.6 °F 53.1 °F 59% 30.23 in 10.0 mi SSW 3.5 mph - N/A   Unknown
5:35 PM 66.6 °F 52.9 °F 61% 30.24 in 10.0 mi SSW 6.9 mph - N/A   Unknown
5:55 PM 66.0 °F 53.2 °F 63% 30.25 in 10.0 mi SW 5.8 mph - N/A   Unknown
6:15 PM 65.7 °F 53.6 °F 65% 30.26 in 10.0 mi SW 4.6 mph - N/A   Unknown
6:35 PM 65.3 °F 53.6 °F 66% 30.26 in 10.0 mi SW 3.5 mph - N/A   Unknown
7:15 PM 63.9 °F 53.1 °F 68% 30.26 in 10.0 mi SW 3.5 mph - N/A   Unknown
7:35 PM 63.5 °F 52.7 °F 68% 30.27 in 10.0 mi SSW 9.2 mph - N/A   Unknown
7:55 PM 63.0 °F 52.7 °F 69% 30.26 in 10.0 mi SSW 10.4 mph - N/A   Unknown
8:15 PM 62.1 °F 52.7 °F 71% 30.26 in 10.0 mi SSW 8.1 mph - N/A   Unknown
8:35 PM 61.2 °F 52.7 °F 74% 30.26 in 10.0 mi SSW 6.9 mph - N/A   Unknown
8:55 PM 60.8 °F 52.7 °F 75% 30.27 in 10.0 mi SSW 6.9 mph - N/A   Unknown
9:15 PM 59.9 °F 53.2 °F 79% 30.27 in 10.0 mi SSW 5.8 mph - N/A   Unknown
9:35 PM 60.1 °F 53.8 °F 80% 30.27 in 10.0 mi SSW 5.8 mph - N/A   Unknown
9:55 PM 59.7 °F 53.6 °F 80% 30.27 in 10.0 mi SW 5.8 mph - N/A   Unknown
10:15 PM 58.3 °F 53.2 °F 83% 30.27 in 10.0 mi SSW 5.8 mph - N/A   Unknown
10:35 PM 57.9 °F 53.4 °F 85% 30.27 in 10.0 mi SW 5.8 mph - N/A   Unknown
10:55 PM 57.4 °F 57.0 °F 99% 30.27 in 10.0 mi SW 5.8 mph - N/A   Unknown
11:15 PM 57.2 °F 57.0 °F 99% 30.26 in 10.0 mi SSW 5.8 mph - N/A   Unknown
11:35 PM 56.7 °F 56.7 °F 100% 30.26 in 10.0 mi SSW 5.8 mph - N/A   Unknown
11:55 PM 56.3 °F 56.3 °F 100% 30.25 in 10.0 mi SSW 5.8 mph - N/A   Unknown